Location: Audrecelles
(50.8240°N, 1.5923°E)
Time: 01:49:04
(UTC+00:00)

Cosmos 44 - Pass Details

Date: 21 October 2025
Orbit: 576 x 774 km, 65.1° (Epoch: 13 November)

Event Time Altitude Azimuth Distance (km) Brightness Sun altitude
Exits shadow 02:52:30 30° 30° (NNE) 1,297 5.0 -33.7°
Maximum altitude 02:52:35 30° 32° (NNE) 1,298 5.0 -33.7°
Drops below altitude 10° 02:57:08 10° 93° (E) 2,269 6.6 -33.1°
Sets 02:59:51 0° 104° (ESE) 3,214 7.4 -32.7°
